HAWK-A (43765 NORAD) Tracking and Keplerian Element Data

This shows tracking and keplerian element data for the satellite.

Feedback or suggestion? Click here.




ElementValue
Catalog43765
NameHAWK-A
Epoch Orbit3444
Epoch Day203.18228894
Epoch Year2019
RAAN274.9821
Inclination97.7407
Eccentricity0.0014112
Argument of Perigee219.8246
Mean Anonmoly140.194
Mean Motion14.95992118
Decay Rate-4.26E-06
L11 43765U 18099H 19203.18228894 -.00000426 00000-0 -32761-4 0 9996
L22 43765 97.7407 274.9821 0014112 219.8246 140.1940 14.95992118 34448

Live tracking and technical data element details for HAWK-A (NORAD 43765). HAWK-A can be tracked NOW for your location showing map with azimuth and elevation plus other details from your city location.

Track the satellite on the map from your city or location and see movement details for azimuth, elevation, latitude, longitude, range, height, and movement on the map or in text.







IsCatalogInMostPopularTable: catalog: 43765, numindb: 97
Update: records affected: 1



GetName: 43765 HAWK-A

Hit Count: updated at: Tue, 23 Jul 2019 03:06:53 GMT